This is the latest recevied weather packets stored in our database for station/object W8DRH-13. If no packets are shown the sender has not sent any weather packets the latest 10 day(s).
| Time | Temp. | Humidity | Pressure | Rain* | Wind** | Luminosity | Snow |
|---|---|---|---|---|---|---|---|
| 1777515644 | 8.89° C | 98% | 1009.4 hPa | 0 mm | - | 0 W/m² | - |
| 1777515341 | 8.89° C | 98% | 1009.5 hPa | 0 mm | - | 0 W/m² | - |
| 1777515037 | 9.44° C | 98% | 1009.6 hPa | 0 mm | - | 0 W/m² | - |
| 1777514733 | 8.89° C | 98% | 1009.2 hPa | 0 mm | - | 0 W/m² | - |
| 1777514431 | 8.89° C | 98% | 1009.2 hPa | 0 mm | - | 0 W/m² | - |
| 1777514127 | 8.89° C | 98% | 1009.2 hPa | 0 mm | - | 0 W/m² | - |
| 1777513824 | 8.89° C | 98% | 1009.3 hPa | 0 mm | - | 0 W/m² | - |
| 1777513521 | 8.89° C | 98% | 1009.1 hPa | 0 mm | - | 0 W/m² | - |
| 1777513218 | 8.89° C | 98% | 1009 hPa | 0 mm | - | 0 W/m² | - |
| 1777512914 | 8.89° C | 98% | 1009 hPa | 0 mm | - | 0 W/m² | - |
| 1777512308 | 8.89° C | 97% | 1009.2 hPa | 0 mm | - | 0 W/m² | - |
| 1777512004 | 8.89° C | 97% | 1009.1 hPa | 0 mm | - | 0 W/m² | - |
| 1777511703 | 8.89° C | 97% | 1008.8 hPa | 0 mm | - | 0 W/m² | - |
| 1777511400 | 8.89° C | 97% | 1008.8 hPa | 0 mm | - | 0 W/m² | - |
| 1777511096 | 9.44° C | 97% | 1009 hPa | 0 mm | - | 0 W/m² | - |
| 1777509274 | 9.44° C | 97% | 1008.7 hPa | 0 mm | - | 0 W/m² | - |
| 1777508971 | 9.44° C | 97% | 1008.8 hPa | 0 mm | - | 0 W/m² | - |
| 1777508668 | 10° C | 97% | 1008.7 hPa | 0 mm | - | 0 W/m² | - |
| 1777508365 | 10° C | 97% | 1008.7 hPa | 0 mm | - | 1 W/m² | - |
| 1777508062 | 10° C | 97% | 1008.7 hPa | 0 mm | - | 3 W/m² | - |
| 1777507456 | 10° C | 96% | 1008.5 hPa | 0 mm | - | 12 W/m² | - |
| 1777507153 | 10° C | 96% | 1008.7 hPa | 0 mm | - | 18 W/m² | - |
| 1777506548 | 10° C | 96% | 1008.7 hPa | 0 mm | - | 3 W/m² | - |
| 1777505333 | 10° C | 96% | 1008.3 hPa | 1.78 mm | - | 6 W/m² | - |
| 1777502300 | 11.11° C | 93% | 1007.9 hPa | 0 mm | - | 29 W/m² | - |
* Rain latest hour (hover to see other rain measurements)
** Current wind speed in m/s (hover to see current wind gust speed)